Tracking 18945 objects as of 19-Jan-2018
HD Live streaming from Space Station
objects crossing your sky now

SL-8 R/B

Track SL-8 R/B now!
10-day predictions


NORAD ID: 25569
Int'l Code: 1998-072C
Perigee: 977.8 km
Apogee: 1,007.1 km
Inclination: 82.9 °
Period: 104.8 minutes
Semi major axis: 7363 km
RCS: 8.6244 m2 (large)
Launch date: December 10, 1998
Source: Commonwealth of Independent States (former USSR) (CIS)
Launch site: PLESETSK MISSILE AND SPACE COMPLEX (PKMTR)

Note: This is a ROCKET BODY
aabbcc
Your satellite tracking list
Your tracking list is empty




NASA's NSSDC Master Catalog

Two Line Element Set (TLE):
1 25569U 98072C   18018.90904997 -.00000040  00000-0 -58591-4 0  9996
2 25569  82.9440 170.0966 0019893 264.2941 251.8420 13.73993144958124
Source of the keplerian elements: AFSPC